TimeCET,TemperatureF,Dew PointF,Humidity,Sea Level PressureIn,VisibilityMPH,Wind Direction,Wind SpeedMPH,Gust SpeedMPH,PrecipitationIn,Events,Conditions,WindDirDegrees,DateUTC
12:20 AM,24.8,24.8,100,30.30,-9999.0,NNW,2.3,-,N/A,,Clear,340,2012-12-30 23:20:00
12:50 AM,24.8,24.8,100,30.30,-9999.0,ENE,1.2,-,N/A,,Clear,60,2012-12-30 23:50:00
1:20 AM,24.8,24.8,100,30.30,-9999.0,North,1.2,-,N/A,,Clear,10,2012-12-31 00:20:00
1:50 AM,24.8,23.0,93,30.30,-9999.0,Calm,Calm,-,N/A,,Clear,0,2012-12-31 00:50:00
2:20 AM,24.8,24.8,100,30.30,-9999.0,North,2.3,-,N/A,,Clear,360,2012-12-31 01:20:00
2:50 AM,24.8,23.0,93,30.30,-9999.0,North,2.3,-,N/A,,Clear,360,2012-12-31 01:50:00
3:20 AM,24.8,23.0,93,30.30,-9999.0,Variable,1.2,-,N/A,,Clear,0,2012-12-31 02:20:00
3:50 AM,26.6,24.8,93,30.30,-9999.0,NNW,3.5,-,N/A,,Clear,340,2012-12-31 02:50:00
4:20 AM,24.8,23.0,93,30.30,-9999.0,Variable,1.2,-,N/A,,Clear,0,2012-12-31 03:20:00
4:50 AM,24.8,24.8,100,30.30,-9999.0,Variable,1.2,-,N/A,,Clear,0,2012-12-31 03:50:00
5:20 AM,26.6,24.8,93,30.30,-9999.0,North,3.5,-,N/A,,Clear,350,2012-12-31 04:20:00
5:50 AM,24.8,23.0,93,30.30,-9999.0,North,2.3,-,N/A,,Clear,350,2012-12-31 04:50:00
6:20 AM,24.8,24.8,100,30.30,-9999.0,Variable,1.2,-,N/A,,Clear,0,2012-12-31 05:20:00
6:50 AM,23.0,23.0,100,30.33,-9999.0,NNW,2.3,-,N/A,,Clear,340,2012-12-31 05:50:00
7:20 AM,24.8,21.2,86,30.33,-9999.0,Variable,1.2,-,N/A,,Clear,0,2012-12-31 06:20:00
7:50 AM,24.8,23.0,93,30.33,-9999.0,North,1.2,-,N/A,,Clear,350,2012-12-31 06:50:00
8:20 AM,26.6,26.6,100,30.36,-9999.0,Variable,2.3,-,N/A,,Clear,0,2012-12-31 07:20:00
8:50 AM,28.4,26.6,93,30.36,-9999.0,North,2.3,-,N/A,,Clear,350,2012-12-31 07:50:00
9:20 AM,30.2,28.4,93,30.36,-9999.0,North,3.5,-,N/A,,Clear,360,2012-12-31 08:20:00
9:50 AM,35.6,30.2,81,30.36,-9999.0,Variable,2.3,-,N/A,,Clear,0,2012-12-31 08:50:00
10:20 AM,41.0,32.0,70,30.36,-9999.0,Variable,2.3,-,N/A,,Clear,0,2012-12-31 09:20:00
10:50 AM,42.8,32.0,66,30.36,-9999.0,North,3.5,-,N/A,,Clear,360,2012-12-31 09:50:00
11:20 AM,44.6,32.0,61,30.33,-9999.0,Variable,1.2,-,N/A,,Clear,0,2012-12-31 10:20:00
11:50 AM,46.4,30.2,53,30.33,-9999.0,Variable,1.2,-,N/A,,Clear,0,2012-12-31 10:50:00
12:20 PM,48.2,30.2,50,30.33,-9999.0,Calm,Calm,-,N/A,,Clear,0,2012-12-31 11:20:00
12:50 PM,48.2,30.2,50,30.30,-9999.0,Variable,1.2,-,N/A,,Clear,0,2012-12-31 11:50:00
1:20 PM,50.0,30.2,47,30.27,-9999.0,Calm,Calm,-,N/A,,Clear,0,2012-12-31 12:20:00
1:50 PM,50.0,30.2,47,30.27,-9999.0,WSW,2.3,-,N/A,,Clear,240,2012-12-31 12:50:00
2:20 PM,51.8,30.2,44,30.27,-9999.0,Variable,1.2,-,N/A,,Clear,0,2012-12-31 13:20:00
2:50 PM,50.0,30.2,47,30.24,-9999.0,SW,2.3,-,N/A,,Clear,220,2012-12-31 13:50:00
3:20 PM,50.0,32.0,50,30.24,-9999.0,SSW,2.3,-,N/A,,Clear,200,2012-12-31 14:20:00
3:50 PM,48.2,32.0,54,30.24,-9999.0,SSW,3.5,-,N/A,,Clear,200,2012-12-31 14:50:00
4:20 PM,44.6,33.8,66,30.21,-9999.0,SSW,2.3,-,N/A,,Clear,210,2012-12-31 15:20:00
4:50 PM,42.8,33.8,70,30.21,-9999.0,SW,2.3,-,N/A,,Clear,230,2012-12-31 15:50:00
5:20 PM,39.2,33.8,81,30.21,-9999.0,SSW,1.2,-,N/A,,Clear,200,2012-12-31 16:20:00
5:50 PM,37.4,33.8,87,30.21,-9999.0,Variable,1.2,-,N/A,,Clear,0,2012-12-31 16:50:00
6:20 PM,35.6,33.8,93,30.21,-9999.0,SSW,3.5,-,N/A,,Clear,200,2012-12-31 17:20:00
6:50 PM,32.0,32.0,100,30.21,-9999.0,Variable,2.3,-,N/A,,Clear,0,2012-12-31 17:50:00
7:20 PM,32.0,30.2,93,30.21,-9999.0,Variable,1.2,-,N/A,,Clear,0,2012-12-31 18:20:00
7:50 PM,28.4,28.4,100,30.21,-9999.0,Calm,Calm,-,N/A,,Clear,0,2012-12-31 18:50:00
8:20 PM,32.0,32.0,100,30.21,-9999.0,Variable,2.3,-,N/A,,Clear,0,2012-12-31 19:20:00
8:50 PM,28.4,28.4,100,30.18,-9999.0,Variable,1.2,-,N/A,,Clear,0,2012-12-31 19:50:00
9:20 PM,28.4,28.4,100,30.18,-9999.0,Calm,Calm,-,N/A,,Clear,0,2012-12-31 20:20:00
9:50 PM,30.2,30.2,100,30.18,-9999.0,North,2.3,-,N/A,,Clear,360,2012-12-31 20:50:00
10:20 PM,28.4,28.4,100,30.18,-9999.0,Variable,1.2,-,N/A,,Clear,0,2012-12-31 21:20:00
10:50 PM,26.6,24.8,93,30.18,-9999.0,Calm,Calm,-,N/A,,Clear,0,2012-12-31 21:50:00
11:20 PM,26.6,26.6,100,30.15,-9999.0,Variable,1.2,-,N/A,,Clear,0,2012-12-31 22:20:00
11:50 PM,24.8,23.0,93,30.15,-9999.0,Calm,Calm,-,N/A,,Clear,0,2012-12-31 22:50:00